Location: Brahman Valley
(40.6513°N, 111.8855°W)
Time: 09:11:45
(UTC+00:00)

Tiros 1 despin weight - Pass Details

Date: 12 May 2021
Orbit: 594 x 641 km, 48.2° (Epoch: 22 June)

Event Time Altitude Azimuth Distance (km) Brightness Sun altitude
Rises 09:21:13 0° 299° (WNW) 2,943 ? -25.1°
Reaches altitude 10° 09:23:34 10° 300° (WNW) 2,029 ? -24.9°
Maximum altitude 09:28:15 82° 29° (NNE) 644 ? -24.4°
Drops below altitude 10° 09:32:53 10° 117° (ESE) 2,002 ? -23.9°
Sets 09:35:11 0° 118° (ESE) 2,900 ? -23.7°
